CAPE
2538 2595 2178 2489 2281 2366 2167 2172 1850 1523 1476 1482 1495 1401 1224 1286 1326 672 594 789 1054 1551 1778 1343 1062 705 547 477 595 528 354 102 16 0 18 10 21 28 3 6 4 23 22
2551 2503 2408 2566 2399 2291 2340 2159 2150 1789 1623 1619 1597 1437 1251 1258 1362 1147 873 355 791 1006 1306 1645 1441 1000 772 465 461 365 331 206 125 20 15 11 13 13 17 2 11 10 19
2814 2787 2588 2368 2424 2268 2391 2164 2290 2037 1847 1664 1627 1485 1476 1580 1408 1206 1244 828 284 493 660 1121 1357 1280 787 599 219 148 186 211 149 73 28 11 22 21 20 2 6 2 15
3090 2618 2463 2715 2691 2437 2329 2213 2173 2249 1828 1792 1708 1582 1537 1514 1431 1254 1120 1162 691 371 116 399 729 792 454 707 232 83 75 105 162 100 42 26 27 29 21 9 4 3 4
2576 2938 2586 2344 2582 2837 2442 2447 2296 2341 2124 1836 1694 1691 1645 1528 1379 1233 1084 870 872 750 272 123 300 379 23 289 390 337 164 82 44 118 49 37 37 36 13 22 7 4 5
2313 2307 2799 2420 2206 2550 2741 2451 2395 2298 2263 1941 1772 1691 1707 1523 1395 1185 1011 954 925 562 354 124 21 36 63 211 564 455 393 198 77 34 57 44 47 40 26 13 13 4 9
2557 2345 2497 2601 2362 2032 2445 2638 2434 2239 2162 2032 1931 1621 1621 1486 1393 1208 1052 882 764 624 502 103 28 67 0 43 374 559 431 299 111 36 73 56 44 39 33 7 8 5 23
2564 2673 2523 2431 2461 2057 2100 2763 2597 2254 2158 2062 1745 1477 1574 1543 1396 1196 1049 1005 765 607 545 425 308 93 36 6 4 164 240 324 228 146 89 57 43 39 37 17 11 23 28
2293 2869 2689 2380 2466 2370 2103 2263 2360 2313 1986 2025 1778 1368 1055 826 874 1033 1163 974 757 688 504 451 362 230 177 148 29 0 0 25 144 169 117 56 49 27 35 33 26 29 27
2432 2612 2824 2792 2609 2634 2343 2174 2001 1886 2007 2045 1880 1563 1102 904 442 1022 988 894 696 665 591 551 347 256 211 98 51 1 0 0 3 62 117 78 52 28 26 27 20 26 33
2081 2292 2251 2538 2785 2436 2451 1939 1696 1655 1820 1676 1899 1566 1514 1312 1148 928 662 859 843 640 654 597 478 252 157 98 49 0 0 0 0 0 32 74 58 50 30 24 14 19 24
993 1928 1943 2237 2605 2443 1682 791 1517 1548 1577 1516 1426 1368 1384 1423 1211 1017 871 514 452 545 442 545 543 365 124 74 1 1 1 0 0 0 0 10 36 46 33 29 24 16 24
203 1185 1677 2019 2464 2572 2006 1956 1649 1480 1468 1360 1379 1168 1119 1155 1254 1092 906 513 561 469 285 358 457 425 177 43 9 0 0 1 0 0 0 0 5 22 19 20 21 24 23
6 676 1228 1412 1998 2174 2157 1957 1891 1632 1388 1237 1258 1135 1010 994 975 843 757 592 416 366 261 277 369 344 247 160 60 0 0 0 1 1 0 0 0 0 0 2 5 6 16
1 232 1130 1238 1513 2040 2077 1947 1708 1602 1315 1267 1121 1163 995 958 964 987 885 529 303 281 209 244 246 247 154 122 82 0 0 0 0 0 0 0 0 0 0 0 0 0 2
3 442 935 1131 1006 1520 1691 1560 1508 1278 1194 958 1084 1146 1105 1063 1090 1053 891 631 424 305 245 352 178 217 160 97 57 0 0 0 1 1 0 0 0 0 0 0 0 0 0
6 581 640 523 3 997 1290 1344 1327 1170 1102 996 972 1051 1044 1068 1259 1052 826 647 536 388 260 236 175 99 43 37 1 0 0 0 0 1 1 1 0 0 0 0 0 0 0
137 930 1064 798 205 988 1184 1318 1172 1032 1062 902 909 881 908 956 1052 1022 564 383 246 213 228 207 162 158 169 57 0 0 0 2 0 0 1 0 0 0 0 0 0 0 0
7 5 2 2 2 2 918 1118 1096 1002 943 795 889 805 796 868 916 588 433 341 201 231 215 135 102 99 63 69 53 14 1 0 0 0 0 0 0 0 0 0 0 0 0
9 12 15 12 14 8 5 2 859 805 731 635 521 243 14 31 47 0 0 0 0 0 7 47 46 14 42 30 13 12 16 0 0 2 0 0 0 0 0 0 0 0 0
1 4 7 10 9 15 17 7 4 1 1 4 5 5 4 0 0 0 1 0 0 0 1 1 0 0 6 11 9 9 17 1 0 0 0 0 0 0 0 0 0 0 0
0 9 19 9 3 16 12 17 4 3 5 7 3 5 5 2 2 0 0 0 0 0 2 4 2 2 1 14 16 14 16 7 0 0 0 0 0 0 0 0 0 0 0
6 8 12 14 24 22 11 12 24 21 17 11 5 4 5 6 5 2 0 0 0 0 0 2 3 3 2 3 4 1 2 1 0 0 0 0 0 0 0 0 1 0 0
1 5 1 1 1 6 9 2 2 0 2 3 0 1 2 1 2 1 2 2 2 2 1 2 2 2 2 3 4 5 3 1 0 0 0 0 0 0 0 0 0 0 0
1 1 1 0 1 4 15 9 1 0 0 0 2 2 2 2 3 2 1 1 0 1 2 1 1 1 1 1 3 3 0 1 1 0 0 0 0 0 0 0 0 2 0
6 3 2 1 6 0 16 15 3 0 0 0 0 0 7 5 7 4 1 1 1 1 0 0 0 0 0 0 1 1 3 1 1 0 0 0 0 0 0 0 0 0 0
CIN
-28 -13 -11 -27 -27 -6 -12 -4 -5 -29 -20 -23 -15 -29 -32 -15 -16 -125 -154 -102 -79 -31 -0 -0 0 -3 -21 -10 -1 -0 -1 -14 -13 0 -3 -4 -1 -2 -0 -1 -0 -1 -1
-13 -33 -23 -11 -25 -20 -19 -17 -7 -10 -12 -14 -13 -12 -13 -15 -10 -28 -112 -202 -108 -65 -28 -0 0 0 -5 -11 -1 -2 -9 -3 -1 -11 -5 -4 -2 -1 -1 -0 -0 -0 -0
-15 -13 -17 -21 -31 -27 -25 -36 -20 -17 -22 -21 -15 -19 -13 -7 -10 -16 -58 -113 -196 -118 -78 -39 -5 -2 -7 -0 -2 -32 -4 -1 -1 -6 -2 -4 -3 -2 -1 -0 -0 -0 -1
-17 -24 -22 -16 -15 -20 -38 -50 -36 -13 -26 -28 -21 -18 -14 -16 -9 -13 -17 -40 -92 -105 -234 -109 -39 -13 -21 -2 -27 -57 -10 0 -1 -3 -5 -8 -3 -2 -1 -0 -0 -0 -0
-36 -16 -16 -46 -44 -28 -45 -41 -43 -21 -13 -27 -26 -28 -17 -13 -18 -14 -14 -17 -39 -43 -154 -229 -114 -48 -117 -33 -14 -9 -3 -5 -2 -1 -6 -4 -4 -2 -1 -1 -0 -0 -0
-85 -46 -10 -53 -60 -41 -26 -25 -44 -42 -17 -30 -15 -15 -17 -23 -22 -30 -36 -17 -10 -28 -102 -223 -247 -230 -152 -53 -4 0 -1 -0 -0 -1 -1 -1 -1 -4 -3 -0 -0 -0 -0
-52 -68 -22 -26 -78 -71 -47 -25 -32 -47 -29 -27 -11 -13 -22 -26 -25 -32 -40 -53 -37 -58 -51 -210 -259 -184 0 -177 -20 -1 -1 0 -0 0 -0 -3 -4 -2 -4 -1 -0 0 -0
-12 -17 -25 -20 -66 -114 -63 -13 -10 -30 -18 -28 -12 -14 -3 -3 -19 -44 -46 -23 -63 -65 -71 -71 -97 -182 -206 -287 -215 -28 -7 -2 -0 -1 -0 -3 -7 -4 -3 -1 -0 -0 -0
-18 -10 -4 -47 -13 -59 -96 -59 -39 -41 -37 -12 -19 -26 -6 -43 -58 -43 -43 -23 -37 -41 -60 -69 -75 -90 -130 -89 -177 0 0 -28 -1 -0 -0 -1 -4 -6 -4 -4 -1 -0 -1
-8 -10 -11 -2 -5 -7 -46 -87 -115 -98 -26 -16 -7 -22 -42 -49 -51 -16 -51 -51 -63 -77 -57 -41 -85 -59 -47 -81 -84 -68 0 0 -21 -6 -1 -0 -1 -4 -7 -6 -4 -1 -0
-14 -3 -13 -10 -3 -15 -6 -82 -105 -119 -75 -64 -22 -41 -29 -43 -56 -31 -33 -26 -18 -58 -90 -56 -57 -91 -80 -36 -44 0 0 0 0 0 -7 -2 -0 -0 -4 -4 -4 -2 -1
-44 -15 -12 -14 -14 -22 -29 -8 -99 -111 -114 -106 -80 -53 -52 -32 -45 -30 -24 -48 -41 -30 -58 -60 -66 -77 -93 -81 -4 -1 0 0 0 0 0 -11 -3 -1 -1 -3 -3 -3 -1
-187 -11 -9 -14 -9 -9 -34 -42 -87 -103 -97 -120 -108 -118 -91 -72 -33 -40 -31 -52 -25 -42 -63 -51 -83 -82 -118 -146 -107 0 0 0 0 0 0 0 -9 -8 -9 -8 -4 -1 -0
-112 -60 -11 -10 -9 -11 -21 -20 -51 -50 -87 -100 -107 -114 -127 -92 -66 -84 -72 -33 -34 -28 -37 -35 -47 -74 -121 -139 -165 0 0 0 0 0 0 0 0 0 -3 -27 -21 -13 -6
-0 -120 -25 -15 -5 -12 -9 -6 -15 -30 -63 -90 -107 -99 -116 -99 -53 -36 -31 -67 -71 -20 -29 -56 -37 -72 -125 -169 -194 0 0 0 0 0 0 0 0 0 0 0 0 0 -21
-0 -51 -21 -35 -8 -11 -39 -26 -4 -16 -37 -106 -88 -95 -79 -75 -50 -18 -68 -50 -37 -37 -10 -30 -51 -48 -74 -126 -213 0 -0 -15 0 0 0 0 0 0 0 0 0 0 0
0 -52 -41 -163 -132 -2 -26 -28 -1 -5 -9 -58 -64 -78 -73 -65 -25 -34 -61 -54 -40 -39 -16 -48 -56 -69 -67 -92 -51 0 -0 -0 -0 0 0 0 0 0 0 0 0 0 0
-72 -2 -5 -62 -143 -1 -19 -5 -9 -14 -6 -29 -54 -61 -62 -59 -21 -13 -70 -98 -79 -84 -30 -32 -30 -25 -17 -43 0 0 -0 -0 -0 0 0 0 0 0 0 0 0 0 0
0 0 0 0 0 0 -10 -0 -5 -1 -8 -24 -23 -30 -48 -41 -6 -22 -33 -30 -57 -36 -9 -14 -59 -28 -50 -70 -64 -33 -9 0 -0 0 0 0 0 0 0 0 0 0 0
0 0 0 0 0 0 0 0 -6 -9 -21 -33 -52 -18 -124 -89 -69 0 0 0 0 0 -46 -30 -31 -68 -46 -81 -57 -19 -15 -15 -0 -1 0 0 0 0 0 0 0 0 0
0 0 0 0 0 0 0 0 0 0 0 0 0 0 0 0 0 0 0 0 0 0 0 0 0 -1 -3 -4 -5 -10 -5 -13 0 -0 0 0 0 0 0 0 0 0 0
-0 0 0 0 0 0 0 0 0 0 0 0 0 0 0 0 0 0 0 0 0 0 0 0 0 0 -0 -1 -2 -4 -3 -1 0 0 0 0 0 0 0 0 0 0 0
0 0 0 0 0 0 0 0 0 0 0 0 0 0 0 0 0 0 0 0 0 0 0 0 0 0 0 0 0 0 0 -0 0 0 0 0 0 0 0 0 0 0 0
-0 -0 -0 -0 -0 0 0 -0 -0 -0 -0 0 -0 0 -0 0 0 0 0 0 0 0 0 0 0 0 0 0 0 0 0 0 0 0 0 0 0 0 0 0 0 0 0
-0 -0 -0 -0 -0 -0 0 0 0 -0 0 -0 -0 -0 -0 0 0 0 0 0 0 -0 0 0 -0 0 0 0 0 0 0 0 0 0 0 0 0 0 0 0 0 0 0
-0 -0 -0 -0 -0 -0 0 0 -0 -0 0 -0 0 -0 0 0 0 0 0 0 0 0 0 -0 -0 0 0 -0 0 0 0 0 0 0 0 0 0 0 0 0 0 0 0
Wind_Speed
8 8 7 8 8 7 8 7 7 8 8 7 5 7 6 5 5 5 4 11 12 12 14 16 17 15 16 15 13 13 14 15 15 15 13 14 12 12 12 12 12 11 10
6 8 8 8 8 9 9 8 7 8 7 5 6 6 6 5 4 5 6 5 12 11 12 15 17 17 16 16 13 9 12 13 14 15 15 13 11 13 12 13 12 11 8
8 9 9 6 9 9 11 7 8 6 5 5 5 5 4 5 4 2 5 6 6 11 12 13 13 14 13 14 12 13 13 13 15 16 16 15 13 14 12 14 14 13 11
7 7 6 5 5 6 10 8 8 6 6 4 5 5 5 5 6 4 3 5 6 6 8 10 11 11 11 15 21 19 17 14 16 17 18 17 16 15 15 15 15 14 14
12 7 9 8 6 3 8 9 8 8 7 6 7 5 5 5 5 5 6 4 7 5 6 12 12 14 16 16 20 22 23 21 21 19 18 18 18 17 17 16 16 16 15
15 13 8 10 10 6 4 9 10 6 7 7 7 7 4 5 5 5 6 5 6 7 6 7 7 6 13 15 21 22 22 22 24 21 19 19 20 19 19 18 18 18 17
16 16 13 10 12 12 8 9 8 10 7 6 4 3 4 5 6 5 5 7 8 8 9 9 7 5 6 14 18 22 23 24 25 23 21 21 21 20 19 20 19 19 16
15 16 16 14 14 11 13 8 11 8 7 8 7 4 3 3 5 7 5 7 11 8 8 9 9 9 7 6 11 19 22 22 23 23 23 21 22 19 20 21 20 19 18
17 17 19 16 15 13 13 14 12 14 10 8 10 6 4 6 4 6 11 8 7 5 6 8 10 10 10 8 9 14 17 19 21 23 24 23 22 22 22 21 20 19 20
18 18 18 17 16 14 14 15 14 14 9 11 8 10 5 3 4 3 5 9 6 7 7 5 7 8 9 8 11 13 16 18 20 21 24 25 24 24 23 23 22 21 20
13 19 17 19 18 13 16 17 16 15 13 10 10 9 10 7 4 3 3 4 5 6 8 8 7 8 10 10 9 11 17 19 23 23 22 25 25 25 25 25 24 24 22
12 15 19 17 18 15 16 12 14 15 15 14 10 11 10 9 11 7 5 4 7 5 5 7 9 9 9 9 11 13 18 19 20 18 20 23 26 26 26 25 25 25 23
10 14 16 18 16 17 14 13 13 15 16 14 15 11 11 10 6 6 4 5 4 4 5 7 8 8 8 8 10 15 16 18 18 21 21 21 23 26 26 26 26 25 25
12 13 15 19 20 19 15 15 12 12 14 14 17 13 11 11 8 9 9 8 4 5 5 5 5 7 7 8 11 17 12 18 19 20 23 22 22 24 24 25 25 25 25
15 17 15 18 22 17 16 15 11 14 14 15 14 14 12 10 8 7 5 5 5 5 6 5 5 8 8 8 10 10 12 15 19 19 20 22 23 23 23 22 23 23 24
21 19 10 14 17 13 13 11 13 12 14 12 11 15 14 10 10 9 6 5 5 5 6 5 5 4 10 9 10 11 12 14 18 20 21 22 22 24 23 22 22 22 23
20 22 11 9 4 17 14 15 13 13 14 14 13 14 16 14 8 5 5 4 6 5 8 5 5 5 5 9 7 9 10 11 10 18 20 21 21 20 19 20 21 22 23
18 18 11 16 18 24 18 16 15 13 14 14 14 12 14 10 10 9 4 5 5 5 4 10 4 4 6 6 11 10 10 10 10 15 22 24 22 22 22 21 22 23 22
17 18 17 16 12 8 10 13 14 14 14 13 11 12 12 11 10 5 4 4 4 4 4 5 7 4 5 4 5 8 11 11 9 13 18 21 22 24 24 26 26 25 24
22 19 16 15 15 13 12 10 12 12 10 7 7 5 5 4 5 5 6 5 4 3 3 2 3 3 5 4 4 5 6 8 10 9 11 13 19 24 26 27 27 26 26
25 18 19 18 18 18 12 12 15 16 16 14 13 13 14 14 15 12 3 4 4 2 2 3 4 4 5 5 7 6 9 8 9 9 8 7 9 10 13 20 23 27 27
23 16 23 24 22 16 29 23 20 17 17 15 14 13 12 18 14 10 8 14 10 2 2 1 3 5 9 8 6 7 10 10 5 4 8 9 2 10 10 11 21 24 22
19 23 23 22 21 21 28 26 26 17 15 16 15 15 13 11 14 11 6 15 14 12 9 3 3 4 4 7 7 9 10 9 8 4 8 6 1 1 4 4 7 20 22
20 19 21 21 22 22 31 26 27 20 14 20 17 14 12 15 17 13 6 8 8 8 7 5 5 4 3 6 7 8 11 10 5 3 1 5 1 3 3 5 10 3 14
18 19 18 25 18 23 33 33 25 16 9 21 13 16 17 15 25 22 10 7 6 8 7 10 8 9 9 11 11 6 3 5 4 3 1 4 3 3 3 5 7 15 12
14 16 16 20 25 20 29 33 17 12 17 13 17 14 28 21 22 23 14 10 9 8 8 7 6 7 8 8 13 7 5 3 1 2 2 3 4 5 4 3 4 5 8
Wind_Direction
192 172 197 177 177 182 187 187 194 195 214 208 202 178 194 231 235 151 135 179 161 163 172 180 189 186 171 181 180 175 170 174 177 169 165 160 163 172 181 174 169 146 154
211 184 199 186 181 191 185 180 202 191 201 199 187 195 203 226 245 147 151 167 160 169 176 186 197 201 197 186 174 175 179 181 184 176 168 169 174 181 182 184 174 174 164
202 181 198 211 182 202 174 169 188 187 203 184 204 199 211 226 227 253 161 145 165 177 185 184 192 208 201 187 164 171 203 195 190 186 178 170 181 175 180 190 185 184 181
229 193 207 219 210 172 167 174 173 181 195 188 195 208 197 208 214 209 217 159 161 186 194 196 191 186 174 190 191 204 190 211 199 192 187 177 189 187 187 194 191 189 189
214 231 204 213 225 234 175 178 172 184 182 196 196 203 200 197 210 196 195 224 162 178 183 194 174 174 170 191 202 193 194 205 209 199 192 185 190 190 195 190 196 195 196
201 217 228 196 211 227 210 182 170 176 183 183 204 207 195 199 201 201 194 195 196 185 148 148 160 191 190 200 189 201 203 205 213 209 202 196 196 196 191 196 196 201 200
193 203 218 193 200 213 218 181 176 172 195 185 159 210 207 207 207 203 189 200 204 192 166 161 165 170 194 205 203 199 206 209 210 209 209 199 198 196 196 203 205 205 202
201 199 206 216 194 201 211 202 186 182 186 188 183 151 202 225 234 209 211 227 193 185 181 179 176 180 190 202 216 207 206 213 221 210 205 204 197 196 196 204 207 204 204
209 201 202 205 207 200 202 202 193 181 190 193 187 152 176 215 165 198 209 217 183 172 173 184 186 193 196 200 204 216 213 215 218 217 207 200 201 198 200 202 204 206 203
220 210 202 205 213 197 201 200 195 199 185 194 190 210 205 172 193 152 206 209 197 184 195 180 188 193 191 200 207 209 203 207 210 221 211 203 201 202 201 201 200 207 209
232 227 214 211 216 200 207 194 190 194 203 202 200 192 216 243 232 207 203 196 203 202 191 197 182 190 203 206 208 212 208 204 206 215 209 207 204 203 203 205 202 203 209
277 235 218 217 219 221 216 202 185 195 199 205 202 208 208 207 226 223 209 179 189 204 196 197 194 191 195 203 212 211 204 200 205 209 209 209 206 205 206 207 206 204 208
278 254 228 218 217 215 198 193 196 195 200 201 204 203 212 215 214 219 208 223 181 198 216 205 194 193 185 197 209 208 208 211 210 211 215 209 205 205 206 208 208 208 208
263 257 244 233 220 218 197 194 194 194 199 207 206 204 206 212 211 222 216 216 195 227 236 191 176 183 185 195 206 198 211 210 213 213 212 212 203 202 205 206 209 210 210
262 253 248 235 230 209 200 193 199 194 194 203 207 205 203 211 216 215 227 202 190 193 224 228 188 193 192 198 210 203 210 207 213 215 212 210 206 202 201 203 204 207 209
266 261 221 238 244 224 197 199 197 200 201 200 204 201 209 210 210 227 202 210 201 200 237 192 211 181 197 204 198 203 215 212 207 210 211 210 207 211 204 202 202 203 206
259 262 218 148 236 252 221 210 196 194 202 198 200 201 206 207 209 225 199 205 213 187 224 247 216 218 219 199 198 201 216 217 217 212 211 209 202 205 207 202 203 203 206
265 286 240 186 199 226 213 206 194 192 194 200 196 206 206 197 210 214 206 208 230 226 197 245 213 228 218 208 202 196 209 220 219 210 210 210 205 210 210 208 208 204 204
45 34 34 30 18 3 227 193 189 190 187 190 190 201 205 193 194 177 151 208 232 235 212 230 257 219 226 218 215 207 209 218 226 218 203 208 211 214 214 214 212 208 204
45 35 34 41 28 19 11 335 194 181 159 175 170 105 61 66 82 93 101 66 47 5 351 261 254 239 225 223 229 225 227 217 227 225 217 206 214 220 220 219 215 209 206
46 26 33 36 36 30 14 18 54 58 68 68 66 74 57 52 57 42 18 87 44 316 313 300 274 275 273 252 229 239 233 234 222 213 214 216 212 216 224 223 222 216 209
47 42 41 37 34 27 25 38 52 54 57 50 49 45 53 37 21 19 68 72 64 16 302 275 272 282 282 283 273 239 236 233 235 208 204 221 258 223 219 214 216 213 208
40 46 45 40 39 33 26 37 55 54 47 58 52 47 38 28 13 4 56 106 75 71 56 358 345 25 326 16 331 302 298 261 230 187 190 215 30 55 338 327 251 206 194
40 44 41 41 39 37 31 35 49 56 31 44 43 57 54 27 15 355 50 66 70 57 44 46 50 32 347 339 318 283 279 284 296 344 67 167 127 51 356 17 16 248 197
41 43 34 46 21 41 25 36 36 42 36 46 37 45 47 30 22 18 31 46 50 44 36 51 50 37 25 16 6 317 324 288 255 248 258 117 154 105 42 29 29 56 83
39 47 43 50 29 37 33 39 31 34 30 32 32 34 45 38 29 34 36 22 26 18 17 20 13 20 15 10 18 22 343 316 327 324 246 94 147 139 97 28 46 59 80